Flag for Poland Weather past 2 weeks in Toruń, Poland

Now
79 °F

Sunny.


Feels Like: 79 °F
Forecast: 63 / 91 °F
Wind: 3 mph from Southeast

Location: Torun

Current Time: Jul 3, 2015 at 10:44:12 AM

Latest Report: Jul 3, 2015 at 10:00 AM


Visibility: 22 mi

Pressure: 30.40 "Hg

Humidity: 36%

Dew point: 49 °F

Location of ToruńLocation

Historic Weather in Toruń — Graph

°F

Toruń temperature yesterday

Maximum temperature yesterday: 80 °F (at 5:00 PM)
Minimum temperature yesterday: 52 °F (at 4:00 AM)
Average temperature yesterday: 68 °F

Past Weeks' High & Low Weather Summary

 TemperatureHumidityPressure
High80 °F (Jul 2, 5:00 PM)97% (Jun 22, 6:00 AM)30.41 "Hg (Jun 22, 6:00 AM)
Low44 °F (Jun 22, 5:00 AM)28% (Jul 2, 5:00 PM)29.64 "Hg (Jun 23, 4:00 AM)
Average61 °F70%30.03 "Hg
* Reported Jun 18 9:00 AM — Jul 3 9:00 AM, Toruń, Weather by CustomWeather, © 2015

Note: Actual official high and low records may vary slightly from our data, if they occured in-between our weather recording intervals... More about our weather records

Advertising

Toruń weather history for previous 24 hours

 ConditionsComfort  
Time TempWeatherWind HumidityBarometerVisibility
9:00 AM
Fri, Jul 3
75 °FSunny.3 mph43%30.41 "Hg22 mi
8:00 AM71 °FSunny.3 mph50%30.41 "Hg25 mi
7:00 AM67 °FSunny.2 mph56%30.40 "Hg25 mi
6:00 AM62 °FSunny.2 mph66%30.40 "Hg25 mi
4:00 AM60 °FClear.2 mph69%30.39 "Hg31 mi
3:00 AM62 °FClear.3 mph64%30.39 "Hg31 mi
2:00 AM63 °FClear.2 mph63%30.39 "Hg31 mi
1:00 AM64 °FClear.2 mph62%30.39 "Hg31 mi
12:00 AM65 °FClear.2 mph58%30.38 "Hg31 mi
10:00 PM
Thu, Jul 2
68 °FClear.2 mph51%30.36 "Hg31 mi
9:00 PM72 °FSunny.2 mph42%30.34 "Hg31 mi
8:00 PM76 °FSunny.2 mph32%30.33 "Hg31 mi
7:00 PM78 °FSunny.3 mph29%30.33 "Hg28 mi
6:00 PM79 °FSunny.3 mph28%30.32 "Hg22 mi
5:00 PM80 °FSunny.3 mph28%30.33 "Hg22 mi
4:00 PM78 °FPassing clouds.2 mph31%30.33 "Hg25 mi
3:00 PM79 °FPassing clouds.3 mph32%30.34 "Hg25 mi
2:00 PM77 °FPassing clouds.3 mph33%30.35 "Hg22 mi
1:00 PM78 °FPassing clouds.3 mph36%30.36 "Hg19 mi
12:00 PM75 °FPassing clouds.3 mph39%30.37 "Hg28 mi
11:00 AM73 °FPassing clouds.3 mph44%30.37 "Hg22 mi
10:00 AM70 °FSunny.2 mph52%30.37 "Hg22 mi
Weather by CustomWeather, © 2015

See weather overviewHow to use our weather pages